Theta_e
317 317 318 318 318 318 317 318 318 317 317 318 318 318 318 318 319 319 319 319 319 319 319 319 320 320 311 297 302 322 352 352 340 326 316 312 308 309 308 312 315 311 313 310 309 308 307
317 318 318 318 318 318 318 318 318 318 318 318 317 317 317 317 318 318 318 318 318 318 318 318 319 320 306 295 308 327 330 325 323 320 317 314 310 312 309 314 312 312 310 307 306 307 309
318 318 318 318 318 318 318 317 318 318 317 317 317 317 317 317 317 317 318 317 317 318 319 320 320 317 306 300 308 332 325 317 322 319 314 318 315 312 313 310 311 308 300 303 305 306 305
319 319 319 319 319 319 318 318 318 318 318 317 317 317 317 316 316 317 316 316 317 319 322 324 321 314 296 306 310 312 314 316 323 322 317 318 318 311 311 310 303 299 297 295 303 304 305
320 320 320 320 320 320 319 318 318 318 318 317 317 317 316 316 316 315 314 315 318 320 324 323 311 300 297 314 308 310 314 310 313 320 320 326 315 308 306 299 296 294 293 293 298 304 303
322 321 321 321 321 320 319 319 318 318 318 317 317 316 316 315 315 314 313 315 317 318 321 322 317 300 304 303 307 310 309 310 308 311 315 315 308 302 297 296 293 292 291 293 294 301 301
322 322 322 322 321 320 320 319 319 318 318 317 317 316 315 314 314 313 309 300 298 297 299 295 297 300 303 307 310 306 308 306 306 311 304 309 301 297 302 300 300 298 295 295 297 302 299
323 323 322 322 321 321 320 319 319 318 318 317 317 316 315 314 312 312 301 298 297 296 292 300 300 301 304 305 301 304 308 301 305 300 305 301 298 305 308 303 300 298 296 294 298 302 298
323 323 322 322 321 321 320 319 319 319 318 317 316 315 314 312 311 304 298 298 300 297 290 297 299 299 301 301 299 301 304 302 300 299 302 298 301 309 307 303 300 297 294 296 296 299 299
323 322 321 321 321 320 320 320 319 318 317 316 316 315 313 310 305 299 301 299 301 298 288 294 298 301 303 300 299 306 306 304 299 296 298 298 306 305 303 302 302 295 301 301 298 294 290
322 321 320 320 320 319 319 319 319 318 317 316 315 314 312 310 299 299 304 300 300 295 282 298 300 306 303 297 302 305 307 301 298 298 297 295 298 298 299 301 302 299 303 300 299 293 289
321 320 319 318 319 319 319 318 318 318 316 315 314 313 311 303 298 301 302 299 295 288 282 294 299 297 296 298 300 303 303 302 302 297 296 297 301 300 300 302 302 303 298 295 290 288 286
319 319 319 319 319 318 318 317 318 317 316 314 312 310 308 305 299 301 300 295 287 283 294 293 293 295 292 294 297 299 298 296 291 287 287 293 296 298 302 297 299 297 291 285 285 285 286
319 319 318 318 317 317 316 316 317 316 314 313 310 308 305 305 301 301 295 292 282 290 290 296 295 294 291 295 295 296 296 294 296 292 288 287 288 296 300 298 295 294 292 287 282 283 287
318 318 318 318 317 316 316 316 316 315 313 310 307 296 296 299 302 298 293 286 286 289 295 294 293 290 290 294 294 294 293 294 296 296 290 287 290 299 300 300 300 294 291 295 290 285 286
316 316 316 317 316 316 316 317 316 313 311 309 294 293 297 303 302 295 289 287 287 293 295 294 289 291 288 292 291 290 292 296 297 300 297 294 291 296 302 300 301 297 299 292 291 287 284
316 315 316 315 315 316 316 316 314 311 309 305 293 295 300 301 300 295 286 285 291 298 298 294 292 291 292 291 290 289 291 298 299 301 299 296 293 295 298 296 295 297 293 295 295 292 286
315 316 315 315 314 316 315 315 312 309 306 298 290 292 300 300 294 287 289 292 298 298 300 298 296 294 292 292 290 290 291 295 303 305 297 297 291 290 296 302 302 300 297 295 291 289 291
315 314 315 315 315 314 315 315 312 308 304 293 288 288 298 299 289 287 290 294 296 298 299 299 297 300 298 293 291 294 297 304 306 305 297 299 290 288 292 298 302 299 301 297 295 292 291
315 314 313 314 314 314 316 316 312 310 307 294 290 290 292 292 289 288 287 290 294 301 300 301 298 299 296 294 294 293 299 304 308 306 319 305 294 294 289 294 299 299 301 303 292 288 289
315 314 314 313 314 314 315 316 313 310 307 294 290 290 289 287 289 287 287 290 292 292 297 300 297 297 295 291 295 294 299 301 305 311 304 298 291 294 297 299 302 303 307 309 299 294 293
315 314 314 313 313 314 316 316 313 310 305 295 291 290 290 288 288 286 288 287 291 293 292 297 295 299 297 294 297 295 297 296 298 301 298 296 294 295 296 301 302 304 304 304 309 309 310
314 313 313 313 312 313 315 317 313 308 301 293 292 292 292 291 287 287 286 289 292 292 295 298 299 297 296 299 302 302 302 302 302 296 295 293 292 290 289 297 300 299 305 306 309 309 308
314 313 313 313 312 313 315 317 313 309 302 295 293 292 290 288 287 288 291 293 292 292 291 296 297 295 301 303 303 301 298 298 299 299 298 293 292 291 289 293 286 301 310 311 309 311 313
314 313 312 312 313 312 314 317 315 310 305 296 294 292 290 286 289 291 291 290 291 291 292 295 299 301 299 300 297 295 295 295 298 302 298 296 292 290 288 289 295 306 305 304 304 306 314
313 312 312 312 312 312 313 317 316 311 307 299 296 294 292 288 289 294 290 291 287 285 290 294 299 298 304 300 297 290 289 293 295 299 301 301 296 292 291 289 290 301 309 312 312 300 315
313 312 311 312 312 312 313 315 317 313 307 299 295 295 292 289 291 291 290 289 290 288 286 289 293 292 302 294 293 290 293 298 293 292 293 294 295 291 293 291 299 310 312 314 296 298 314
312 311 311 312 312 313 313 316 318 315 310 302 297 297 295 289 291 295 296 292 291 290 287 289 289 292 295 294 293 292 293 294 292 294 293 291 291 291 291 292 291 310 312 304 307 312 314
312 311 311 311 312 311 312 314 317 315 312 306 297 298 297 292 292 297 299 300 298 296 292 289 288 289 290 295 294 295 295 295 291 289 298 293 297 295 295 296 307 309 309 313 314 315 316
Wind_Speed
14 14 15 15 15 16 17 17 17 19 19 20 21 22 23 24 26 26 26 25 22 19 17 16 16 15 2 2 12 4 10 10 8 6 3 3 4 3 5 4 2 5 5 5 9 9 8
14 14 15 15 16 16 17 18 18 19 21 21 22 23 23 24 25 26 27 27 26 23 18 15 13 9 2 6 5 2 6 7 7 5 5 6 6 7 5 5 7 6 5 7 7 6 4
13 13 14 15 15 16 17 18 19 19 20 21 22 23 24 25 27 27 28 28 25 24 21 14 8 4 2 16 1 6 3 2 4 5 5 6 4 2 2 5 5 5 5 7 5 1 4
11 12 12 13 13 14 15 17 18 18 18 19 21 21 23 25 27 29 29 28 24 21 13 3 8 3 9 4 3 1 2 6 7 6 4 5 7 7 5 3 7 5 4 4 6 4 2
9 9 10 11 12 12 13 15 16 16 17 19 21 23 25 27 28 31 34 29 23 7 5 12 3 2 10 5 1 1 4 4 4 4 4 3 3 4 2 4 5 4 5 4 8 5 1
10 10 11 13 13 12 13 14 15 17 19 21 23 24 25 27 28 30 32 28 8 2 4 4 3 2 4 3 5 6 5 3 4 3 1 5 3 4 3 4 7 4 3 4 5 5 6
10 10 11 13 12 13 14 16 17 18 19 20 21 22 24 27 29 29 16 6 9 7 9 5 6 4 15 6 7 5 4 5 3 3 5 4 5 6 12 9 5 3 4 7 4 5 4
10 10 11 12 13 14 15 16 17 18 19 20 21 22 24 27 29 26 4 7 5 3 11 7 9 8 11 4 7 7 9 5 4 6 3 2 5 9 10 6 5 4 6 7 6 3 2
12 13 13 14 13 13 14 15 16 16 17 19 20 21 22 25 31 4 2 6 2 3 1 9 5 5 8 5 5 8 7 5 6 4 6 10 7 11 5 4 4 5 4 6 9 4 5
11 10 12 13 11 11 13 15 15 16 17 18 18 19 18 27 3 5 5 2 4 4 5 8 6 4 5 3 6 8 7 8 2 10 7 7 8 9 6 5 9 7 6 8 6 3 5
10 11 12 12 12 12 13 15 15 15 16 18 19 19 17 5 5 4 4 6 5 3 5 10 7 4 11 1 6 6 3 3 9 8 8 10 7 7 10 15 9 10 7 10 6 4 1
10 10 11 13 11 12 13 13 13 14 15 18 20 19 17 1 1 8 8 8 3 7 3 7 6 8 10 4 4 8 5 1 3 4 4 7 5 8 10 8 9 4 3 4 5 3 3
10 11 12 13 13 12 13 14 13 13 16 20 23 23 12 2 5 6 6 4 7 4 5 8 6 10 4 6 9 5 7 9 2 4 4 4 7 3 5 3 2 4 6 4 4 3 7
9 10 11 11 12 13 13 13 13 15 18 21 25 25 2 5 4 6 3 6 4 1 4 5 5 9 4 7 5 8 8 7 3 1 2 4 8 8 5 10 10 7 10 7 6 4 6
8 9 10 11 11 12 13 14 12 14 19 21 23 3 1 4 4 1 6 5 4 3 3 7 10 4 5 3 1 7 5 4 4 3 3 2 6 4 6 6 10 5 4 8 2 4 4
9 10 11 10 11 11 13 12 11 14 19 20 4 4 4 3 3 4 7 2 2 4 4 1 2 1 4 6 6 5 5 3 10 5 4 5 5 3 2 3 2 7 7 4 3 2 5
10 12 10 12 11 11 11 11 10 14 19 12 4 4 5 2 2 7 4 4 4 7 3 5 4 4 6 4 3 4 4 9 5 12 4 3 1 8 1 4 6 1 1 2 6 6 6
12 11 11 11 13 11 12 10 10 13 20 9 2 3 4 2 6 1 1 3 4 6 1 4 3 5 4 3 4 3 5 5 11 8 8 3 2 3 6 5 4 5 8 7 7 7 4
11 11 10 10 11 10 10 8 8 10 11 2 2 3 4 3 3 3 5 5 3 4 4 4 2 2 2 3 4 1 4 8 9 10 5 6 4 5 10 6 4 2 3 5 5 3 9
9 11 11 9 10 10 10 6 5 7 7 4 3 3 5 5 1 3 3 3 6 6 5 3 4 3 4 3 2 5 5 6 14 7 8 4 2 6 5 6 4 8 8 4 4 6 7
10 9 10 9 9 8 8 4 3 5 6 3 3 1 3 3 3 2 0 2 4 6 5 5 4 2 4 3 5 3 4 7 10 1 3 3 3 3 6 5 10 5 11 18 5 4 7
8 8 8 8 8 8 7 4 2 4 3 4 2 2 3 1 2 2 2 2 2 4 3 4 2 10 4 5 7 7 4 4 9 7 5 2 4 1 5 5 3 3 9 17 9 5 5
9 9 8 7 7 9 7 4 3 2 4 2 1 1 4 2 2 1 3 1 3 4 5 7 4 4 6 6 6 14 11 12 10 4 4 3 4 2 6 6 5 6 4 8 6 4 5
9 8 9 8 7 8 9 6 5 3 5 2 2 3 4 3 1 4 2 2 6 4 5 9 7 3 6 13 13 7 6 10 5 10 8 4 2 3 5 5 2 3 4 7 8 8 6
10 10 9 9 9 8 8 6 8 6 6 2 1 3 3 2 3 6 3 4 7 6 4 6 7 4 7 6 5 8 6 4 2 4 1 6 3 3 3 2 3 4 4 6 9 11 4
11 9 9 10 9 8 9 7 10 9 8 3 1 2 3 3 5 2 1 2 3 3 6 6 7 6 4 3 3 2 3 4 5 11 2 3 1 4 3 4 3 3 8 9 8 9 4
11 10 10 10 9 8 9 8 10 11 9 4 1 3 4 2 5 5 5 4 2 1 3 5 8 9 4 4 4 2 3 2 4 5 6 5 5 2 3 2 4 3 4 3 6 5 1
12 10 9 9 9 9 9 7 11 13 11 4 2 4 3 3 7 8 6 5 0 3 3 5 6 3 4 5 2 2 2 2 3 4 2 1 3 3 1 2 2 5 1 3 2 2 1
13 11 9 9 9 10 10 7 9 13 13 5 0 0 3 3 7 5 9 12 13 10 6 2 3 1 4 2 1 1 2 2 1 4 1 1 4 3 5 4 3 4 3 4 2 1 2
Wind_Direction
22 18 14 11 8 7 5 1 359 354 351 349 346 345 341 338 334 332 328 323 319 313 306 304 304 310 312 351 245 126 111 119 126 163 226 182 163 199 216 223 216 218 238 201 254 285 210
11 9 7 4 2 1 359 358 353 352 348 345 343 342 338 335 331 328 323 317 318 312 307 301 293 298 180 260 259 173 118 157 148 175 184 166 214 213 249 235 187 226 241 257 259 260 230
359 358 357 355 354 354 353 353 349 347 342 340 338 338 335 333 328 326 319 317 315 308 306 303 275 239 201 235 146 72 71 268 177 178 205 194 183 201 345 299 309 294 278 308 272 264 281
343 344 343 342 341 341 341 344 342 340 337 338 336 335 333 333 328 324 318 318 315 313 316 297 157 233 243 253 316 305 192 285 230 218 216 181 168 184 179 264 2 351 21 293 293 338 281
318 322 326 331 333 330 331 332 334 333 336 338 336 338 335 335 330 326 322 317 312 331 80 129 115 188 268 278 342 317 177 263 256 222 197 219 143 204 97 102 5 352 241 252 312 290 63
312 312 319 324 324 322 323 327 332 337 341 340 339 337 334 330 325 324 319 306 283 359 217 235 262 11 297 331 288 278 222 226 276 347 176 178 134 125 66 81 230 210 235 241 247 306 349
294 299 305 315 322 325 329 335 338 337 335 334 332 331 329 329 324 325 333 4 11 354 40 272 255 277 274 282 261 239 113 347 236 154 201 207 125 173 211 199 186 196 227 250 251 229 279
305 310 316 320 325 327 329 330 328 328 329 330 328 328 327 323 320 320 316 79 93 202 307 250 245 259 271 276 304 317 141 155 160 202 200 348 199 211 222 172 203 240 269 285 283 291 183
315 317 318 315 316 318 319 318 316 318 320 321 322 324 325 325 320 15 326 141 73 123 283 305 231 246 267 125 241 273 154 189 184 203 199 208 213 214 180 184 185 226 207 247 246 329 215
298 309 318 312 311 308 315 310 312 315 316 316 318 320 333 334 34 328 294 82 282 197 57 292 335 316 338 281 283 220 227 171 231 205 201 228 224 216 218 218 174 251 203 251 282 67 271
321 319 316 314 312 315 312 305 307 308 313 315 319 320 326 352 285 307 289 333 325 93 15 326 317 289 313 155 287 303 205 78 211 200 136 230 179 188 223 231 196 233 176 205 244 213 67
309 305 307 316 307 306 305 304 305 309 316 316 314 315 327 119 236 252 318 321 59 42 283 329 340 327 354 330 285 298 341 96 206 200 289 237 201 165 206 220 187 209 165 61 57 93 342
317 320 320 319 315 314 320 322 321 317 319 317 312 312 312 180 236 320 315 34 41 111 337 333 330 335 341 296 318 8 331 347 17 8 300 310 253 229 152 259 184 139 74 327 333 13 223
315 314 316 320 324 327 321 319 322 323 321 318 313 315 210 214 277 343 11 51 85 302 297 304 314 323 339 360 312 325 350 351 351 169 246 200 292 162 183 180 202 193 160 164 201 210 256
309 310 311 314 318 321 322 321 327 326 322 320 317 327 285 272 213 189 66 61 191 210 284 323 326 360 316 320 215 359 340 270 283 7 301 209 277 300 165 166 144 191 160 205 185 54 44
295 302 310 313 320 322 323 324 334 329 323 326 331 347 310 342 169 57 70 220 253 222 313 343 266 273 299 299 10 0 329 294 318 336 182 274 316 257 299 138 223 160 172 102 50 85 313
302 306 306 317 321 326 331 330 341 337 327 326 26 42 297 355 19 45 105 233 277 254 209 199 218 274 254 293 290 280 273 297 7 319 344 332 119 288 286 177 215 144 254 83 113 156 164
303 310 320 314 320 324 334 332 352 349 337 38 27 53 309 25 50 46 125 210 271 287 347 286 234 222 249 283 290 306 336 273 344 327 327 305 156 290 256 280 265 188 213 171 146 222 236
302 307 310 313 312 319 323 329 358 5 21 12 55 273 313 78 92 337 310 303 275 321 309 315 289 5 1 300 340 292 318 276 311 323 352 324 343 339 346 356 1 343 285 236 141 100 194
288 302 304 305 309 311 316 314 352 5 13 78 64 20 330 45 48 113 17 315 319 313 272 310 268 20 349 326 327 292 317 303 316 302 317 77 178 184 222 235 328 293 318 291 196 147 189
275 286 291 297 305 300 312 305 333 360 4 87 26 248 181 325 2 8 347 302 322 337 333 332 323 348 270 281 313 274 275 309 299 242 328 98 265 198 270 253 269 265 8 346 279 253 171
253 258 270 276 292 295 297 270 282 8 30 72 91 68 359 246 320 319 54 165 261 318 253 316 15 312 246 236 210 257 219 215 252 310 355 315 273 251 282 270 270 287 8 338 328 13 59
241 255 262 263 278 296 299 262 224 57 67 88 301 351 108 291 12 84 220 310 279 353 272 247 316 294 282 250 268 260 237 247 241 339 330 284 169 107 269 315 305 83 35 263 276 341 307
231 242 255 262 254 277 283 256 206 143 101 127 196 108 91 273 181 212 218 341 270 266 254 286 293 239 260 316 290 273 239 246 220 260 185 264 176 174 241 18 31 196 11 35 348 31 342
227 236 247 254 250 265 275 238 190 181 136 97 158 115 121 255 228 290 226 236 308 291 251 244 268 248 325 315 343 344 336 26 44 237 43 211 188 205 160 161 187 170 359 41 12 314 296
222 227 239 244 248 248 262 248 188 180 154 102 190 134 116 120 246 248 233 248 260 291 318 270 310 314 343 61 37 329 295 312 315 323 116 17 99 140 94 173 235 175 177 165 139 261 183
220 221 231 236 243 241 253 255 195 178 168 122 207 171 101 172 260 157 208 190 180 159 251 295 327 338 6 31 22 15 299 273 316 321 329 343 350 61 42 270 291 113 266 156 187 234 20
209 219 230 233 240 232 241 246 198 183 170 133 226 185 138 193 272 209 207 191 291 158 178 287 352 333 353 44 61 291 290 298 319 273 290 246 348 323 295 192 217 15 300 170 268 329 4
202 208 218 232 239 236 231 238 217 178 174 149 232 271 133 169 248 237 218 218 210 180 149 246 219 323 232 59 314 304 306 334 346 297 104 310 193 239 190 248 285 292 247 286 204 246 63